PIA185 OPKC-OAKB

Flight info

Callsign PIA185
Flight time N/A
Altitude 39000
Route BADUL B466 NH J119 SK G214 LUBNA G326 ZB G325 SAJAN/N0474F400 A466 SITAX M875 KODAD DCT LEELO
Aircraft A333/H-SDE3GHIJ2J3J5M1RVWXY/LB2D1

Departure

Time 2026-05-05 08:48
Airport Jinnah International Airport (OPKC)

Arrival

Time N/A
Airport Kabul International Airport (OAKB)
Time Latitude Longitude Altitude Speed Heading
2026-05-05 08:31 24.90204 67.16078 100 ft 0 kts 164°
2026-05-05 08:39 24.90220 67.16073 100 ft 4 kts 164°
2026-05-05 08:39 24.90240 67.16067 100 ft 4 kts 161°
2026-05-05 08:39 24.90265 67.16056 100 ft 4 kts 148°
2026-05-05 08:40 24.90286 67.16038 100 ft 4 kts 133°
2026-05-05 08:40 24.90298 67.16023 100 ft 1 kts 125°
2026-05-05 08:44 24.90290 67.16043 100 ft 8 kts 108°
2026-05-05 08:44 24.90322 67.16145 100 ft 21 kts 70°
2026-05-05 08:44 24.90375 67.16331 101 ft 27 kts 73°
2026-05-05 08:44 24.90430 67.16525 102 ft 27 kts 72°
2026-05-05 08:45 24.90485 67.16727 103 ft 28 kts 74°
2026-05-05 08:45 24.90534 67.16932 105 ft 27 kts 75°
2026-05-05 08:45 24.90583 67.17118 106 ft 25 kts 74°
2026-05-05 08:45 24.90630 67.17293 107 ft 23 kts 73°
2026-05-05 08:46 24.90685 67.17409 108 ft 15 kts 37°
2026-05-05 08:46 24.90766 67.17471 109 ft 14 kts 26°
2026-05-05 08:46 24.90842 67.17461 110 ft 11 kts 307°
2026-05-05 08:46 24.90851 67.17381 110 ft 11 kts 259°
2026-05-05 08:47 24.90843 67.17340 110 ft 0 kts 256°
2026-05-05 08:48 24.90826 67.17270 109 ft 36 kts 255°
2026-05-05 08:48 24.90673 67.16670 104 ft 125 kts 254°
2026-05-05 08:48 24.90382 67.15550 609 ft 164 kts 258°
2026-05-05 08:48 24.90105 67.14260 1573 ft 186 kts 264°
2026-05-05 08:49 24.90484 67.12792 2203 ft 217 kts 305°
2026-05-05 08:49 24.91784 67.11841 2765 ft 238 kts 347°
2026-05-05 08:49 24.93433 67.12022 3635 ft 245 kts 25°
2026-05-05 08:49 24.94672 67.13282 4586 ft 248 kts 60°
2026-05-05 08:50 24.95434 67.15003 5538 ft 251 kts 65°
2026-05-05 08:50 24.96252 67.16725 6446 ft 256 kts 60°
2026-05-05 08:50 24.97204 67.18368 7319 ft 260 kts 55°
2026-05-05 08:50 24.98281 67.19992 8194 ft 264 kts 52°
2026-05-05 08:51 24.99432 67.21597 9052 ft 269 kts 51°
2026-05-05 08:51 25.00627 67.23198 9890 ft 273 kts 50°
2026-05-05 08:51 25.01860 67.24813 10710 ft 277 kts 50°
2026-05-05 08:51 25.03117 67.26442 11503 ft 281 kts 50°
2026-05-05 08:52 25.04397 67.28092 12278 ft 285 kts 49°
2026-05-05 08:52 25.05697 67.29764 13032 ft 289 kts 49°
2026-05-05 08:52 25.07017 67.31460 13759 ft 293 kts 49°
2026-05-05 08:52 25.08354 67.33177 14461 ft 297 kts 49°
2026-05-05 08:53 25.09708 67.34915 15139 ft 301 kts 49°
2026-05-05 08:53 25.11195 67.36557 15762 ft 306 kts 41°
2026-05-05 08:53 25.12854 67.38127 16067 ft 322 kts 40°
2026-05-05 08:53 25.14625 67.39749 16296 ft 339 kts 39°
2026-05-05 08:54 25.16479 67.41447 16511 ft 354 kts 39°
2026-05-05 08:54 25.18391 67.43204 16713 ft 369 kts 40°
2026-05-05 08:54 25.20393 67.45050 16901 ft 382 kts 40°
2026-05-05 08:54 25.22467 67.46965 17079 ft 394 kts 40°
2026-05-05 08:55 25.24600 67.48924 17284 ft 403 kts 39°
2026-05-05 08:55 25.26777 67.50915 17613 ft 408 kts 39°
2026-05-05 08:55 25.28980 67.52925 17984 ft 412 kts 39°
2026-05-05 08:55 25.31195 67.54946 18347 ft 414 kts 39°
2026-05-05 08:56 25.33428 67.56986 18694 ft 417 kts 39°
2026-05-05 08:56 25.35671 67.59037 19027 ft 420 kts 39°
2026-05-05 08:56 25.37924 67.61098 19345 ft 422 kts 39°
2026-05-05 08:56 25.40192 67.63175 19651 ft 424 kts 39°
2026-05-05 08:57 25.42469 67.65262 19942 ft 427 kts 39°
2026-05-05 08:57 25.44760 67.67364 20221 ft 429 kts 39°
2026-05-05 08:57 25.47062 67.69476 20488 ft 431 kts 39°
2026-05-05 08:57 25.49352 67.71579 20744 ft 433 kts 39°
2026-05-05 08:58 25.51679 67.73716 20993 ft 435 kts 39°
2026-05-05 08:58 25.54014 67.75861 21234 ft 437 kts 39°
2026-05-05 08:58 25.56361 67.78019 21471 ft 439 kts 39°
2026-05-05 08:58 25.58715 67.80184 21695 ft 440 kts 39°
2026-05-05 08:59 25.61055 67.82339 21909 ft 442 kts 39°
2026-05-05 08:59 25.63433 67.84528 22117 ft 444 kts 39°
2026-05-05 08:59 25.65813 67.86721 22317 ft 445 kts 40°
2026-05-05 08:59 25.68199 67.88921 22512 ft 447 kts 40°
2026-05-05 09:00 25.70598 67.91134 22700 ft 449 kts 40°
2026-05-05 09:00 25.72998 67.93348 22881 ft 450 kts 40°
2026-05-05 09:00 25.75408 67.95574 23056 ft 452 kts 40°
2026-05-05 09:00 25.77829 67.97811 23226 ft 453 kts 40°
2026-05-05 09:01 25.80257 68.00055 23389 ft 454 kts 40°
2026-05-05 09:01 25.82661 68.02279 23544 ft 456 kts 40°
2026-05-05 09:01 25.85106 68.04541 23697 ft 457 kts 40°
2026-05-05 09:01 25.87552 68.06805 23844 ft 458 kts 40°
2026-05-05 09:02 25.90002 68.09076 23987 ft 459 kts 40°
2026-05-05 09:02 25.92466 68.11360 24128 ft 460 kts 40°
2026-05-05 09:02 25.94931 68.13646 24263 ft 462 kts 40°
2026-05-05 09:02 25.97404 68.15940 24394 ft 463 kts 40°
2026-05-05 09:03 25.99876 68.18236 24524 ft 464 kts 40°
2026-05-05 09:03 26.02327 68.20514 24649 ft 465 kts 40°
2026-05-05 09:03 26.04816 68.22828 24771 ft 466 kts 40°
2026-05-05 09:03 26.07307 68.25144 24892 ft 467 kts 40°
2026-05-05 09:04 26.09802 68.27466 25010 ft 468 kts 40°
2026-05-05 09:04 26.12299 68.29792 25127 ft 469 kts 40°
2026-05-05 09:04 26.14804 68.32126 25239 ft 470 kts 40°
2026-05-05 09:04 26.16095 68.33329 25296 ft 470 kts 40°
2026-05-05 09:05 26.16102 68.33335 25296 ft 470 kts 40°
2026-05-05 09:05 26.18690 68.35652 25399 ft 471 kts 36°
2026-05-05 09:05 26.21424 68.37583 25501 ft 472 kts 28°
2026-05-05 09:06 26.24425 68.39078 25601 ft 473 kts 19°
2026-05-05 09:06 26.27562 68.40179 25702 ft 474 kts 16°
2026-05-05 09:06 26.30746 68.41136 25799 ft 474 kts 14°
2026-05-05 09:06 26.33955 68.42017 25892 ft 475 kts 13°
2026-05-05 09:07 26.37173 68.42865 25982 ft 476 kts 13°
2026-05-05 09:07 26.40407 68.43712 26071 ft 477 kts 13°
2026-05-05 09:07 26.43646 68.44568 26159 ft 477 kts 13°
2026-05-05 09:07 26.46879 68.45433 26242 ft 478 kts 13°
2026-05-05 09:08 26.50114 68.46309 26325 ft 479 kts 13°
2026-05-05 09:08 26.53361 68.47194 26403 ft 480 kts 13°
2026-05-05 09:08 26.56603 68.48082 26480 ft 480 kts 13°
2026-05-05 09:08 26.59847 68.48973 26555 ft 481 kts 13°
2026-05-05 09:09 26.63105 68.49869 26628 ft 482 kts 13°
2026-05-05 09:09 26.66365 68.50765 26699 ft 482 kts 13°
2026-05-05 09:09 26.69584 68.51650 26768 ft 483 kts 13°
2026-05-05 09:09 26.72852 68.52546 26835 ft 483 kts 13°
2026-05-05 09:10 26.76124 68.53435 26901 ft 484 kts 13°
2026-05-05 09:10 26.79409 68.54323 26965 ft 485 kts 13°
2026-05-05 09:10 26.82694 68.55208 27026 ft 485 kts 13°
2026-05-05 09:10 26.85975 68.56093 27086 ft 486 kts 13°
2026-05-05 09:11 26.88163 68.56684 27126 ft 486 kts 13°
2026-05-05 09:11 26.91449 68.57572 27183 ft 486 kts 13°
2026-05-05 09:11 26.95814 68.58753 27257 ft 487 kts 13°
2026-05-05 09:11 26.99110 68.59646 27312 ft 488 kts 13°
2026-05-05 09:12 27.02410 68.60541 27365 ft 488 kts 13°
2026-05-05 09:12 27.04649 68.61149 27401 ft 488 kts 13°
2026-05-05 09:12 27.07952 68.62046 27452 ft 489 kts 13°
2026-05-05 09:12 27.11259 68.62944 27502 ft 489 kts 13°
2026-05-05 09:13 27.14567 68.63843 27643 ft 487 kts 13°
2026-05-05 09:13 27.17838 68.64733 28099 ft 478 kts 13°
2026-05-05 09:13 27.20996 68.65593 28605 ft 469 kts 13°
2026-05-05 09:13 27.24135 68.66448 29119 ft 459 kts 13°
2026-05-05 09:14 27.27208 68.67286 29630 ft 450 kts 13°
2026-05-05 09:14 27.30215 68.68105 30138 ft 440 kts 13°
2026-05-05 09:14 27.33165 68.68910 30646 ft 432 kts 13°
2026-05-05 09:14 27.36057 68.69700 31153 ft 423 kts 13°
2026-05-05 09:15 27.38889 68.70473 31659 ft 414 kts 13°
2026-05-05 09:15 27.41659 68.71230 32161 ft 405 kts 13°
2026-05-05 09:15 27.44379 68.71974 32663 ft 397 kts 13°
2026-05-05 09:15 27.47040 68.72702 33166 ft 388 kts 13°
2026-05-05 09:16 27.49596 68.73401 33658 ft 379 kts 13°
2026-05-05 09:16 27.52126 68.74094 34157 ft 369 kts 13°
2026-05-05 09:16 27.54588 68.74768 34655 ft 358 kts 13°
2026-05-05 09:16 27.56977 68.75423 35152 ft 348 kts 13°
2026-05-05 09:17 27.59286 68.76056 35645 ft 336 kts 13°
2026-05-05 09:17 27.61515 68.76668 36137 ft 322 kts 13°
2026-05-05 09:17 27.63642 68.77272 36621 ft 307 kts 16°
2026-05-05 09:17 27.65621 68.78003 37095 ft 291 kts 21°
2026-05-05 09:18 27.67445 68.78877 37318 ft 288 kts 26°
2026-05-05 09:18 27.69241 68.79942 37197 ft 297 kts 30°
2026-05-05 09:18 27.71064 68.81311 35436 ft 353 kts 44°
2026-05-05 09:18 27.72897 68.83527 33981 ft 410 kts 53°
2026-05-05 09:19 27.74790 68.86088 33246 ft 440 kts 43°
2026-05-05 09:19 27.77312 68.88184 32761 ft 461 kts 28°
2026-05-05 09:19 27.80234 68.89823 32436 ft 477 kts 23°
2026-05-05 09:19 27.83366 68.91224 32238 ft 490 kts 21°
2026-05-05 09:20 27.86576 68.92608 32369 ft 495 kts 20°
2026-05-05 09:20 27.89810 68.93958 32707 ft 495 kts 20°
2026-05-05 09:20 27.93051 68.95289 33056 ft 495 kts 20°
2026-05-05 09:20 27.96241 68.96591 33401 ft 494 kts 20°
2026-05-05 09:21 27.99473 68.97908 33751 ft 493 kts 20°
2026-05-05 09:21 28.02685 68.99221 34103 ft 486 kts 20°
2026-05-05 09:21 28.05856 69.00520 34423 ft 479 kts 20°
2026-05-05 09:21 28.08966 69.01797 34678 ft 473 kts 20°
2026-05-05 09:22 28.12048 69.03065 34932 ft 467 kts 20°
2026-05-05 09:22 28.15088 69.04317 35184 ft 462 kts 20°
2026-05-05 09:22 28.18051 69.05540 35433 ft 456 kts 20°
2026-05-05 09:22 28.21024 69.06766 35686 ft 451 kts 20°
2026-05-05 09:23 28.23955 69.07977 35938 ft 446 kts 20°
2026-05-05 09:23 28.26861 69.09178 36117 ft 443 kts 20°
2026-05-05 09:23 28.29759 69.10375 36172 ft 443 kts 20°
2026-05-05 09:24 28.35550 69.12770 36271 ft 443 kts 20°
2026-05-05 09:24 28.41343 69.15169 36371 ft 442 kts 20°
2026-05-05 09:25 28.47102 69.17556 36421 ft 444 kts 20°
2026-05-05 09:25 28.52915 69.19969 36449 ft 445 kts 20°
2026-05-05 09:26 28.58738 69.22389 36475 ft 446 kts 20°
2026-05-05 09:26 28.64598 69.24827 36518 ft 451 kts 20°
2026-05-05 09:27 28.70579 69.27236 36661 ft 460 kts 14°
2026-05-05 09:27 28.76964 69.28269 36813 ft 468 kts
2026-05-05 09:28 28.83528 69.28768 36967 ft 477 kts
2026-05-05 09:28 28.90207 69.29166 37120 ft 485 kts
2026-05-05 09:29 28.97003 69.29585 37267 ft 492 kts
2026-05-05 09:29 29.03871 69.30035 37411 ft 500 kts
2026-05-05 09:30 29.10869 69.30504 37550 ft 506 kts
2026-05-05 09:30 29.17953 69.30983 37686 ft 513 kts
2026-05-05 09:31 29.25142 69.31469 37823 ft 519 kts
2026-05-05 09:31 29.28755 69.31713 37949 ft 521 kts
2026-05-05 09:31 29.32383 69.31958 38119 ft 521 kts
2026-05-05 09:31 29.35957 69.32200 38305 ft 521 kts
2026-05-05 09:32 29.39582 69.32445 38497 ft 521 kts
2026-05-05 09:32 29.46818 69.32935 38556 ft 522 kts
2026-05-05 09:32 29.50453 69.33181 38703 ft 522 kts
2026-05-05 09:33 29.54049 69.33425 38904 ft 522 kts
2026-05-05 09:33 29.61333 69.33920 38999 ft 524 kts
2026-05-05 09:34 29.68582 69.34413 39001 ft 519 kts
2026-05-05 09:34 29.75768 69.34902 39001 ft 515 kts
2026-05-05 09:35 29.82888 69.35388 39001 ft 511 kts
2026-05-05 09:35 29.93482 69.36112 39000 ft 506 kts
2026-05-05 09:36 30.00443 69.36588 39001 ft 502 kts
2026-05-05 09:36 30.07412 69.37066 39001 ft 499 kts
2026-05-05 09:37 30.14344 69.37542 39001 ft 497 kts
2026-05-05 09:37 30.21231 69.38015 39000 ft 494 kts
2026-05-05 09:38 30.28078 69.38487 39000 ft 492 kts
2026-05-05 09:38 30.34900 69.38958 39001 ft 489 kts
2026-05-05 09:39 30.41651 69.39425 39001 ft 487 kts
2026-05-05 09:39 30.48407 69.39892 39000 ft 485 kts
2026-05-05 09:40 30.55135 69.40359 39000 ft 483 kts
2026-05-05 09:40 30.61838 69.40824 39000 ft 481 kts
2026-05-05 09:41 30.68517 69.41289 39000 ft 480 kts
2026-05-05 09:41 30.75193 69.41754 39000 ft 478 kts
2026-05-05 09:42 30.81783 69.42213 39000 ft 477 kts
2026-05-05 09:42 30.88410 69.42676 39000 ft 475 kts
2026-05-05 09:43 30.95012 69.43138 39000 ft 474 kts
2026-05-05 09:43 31.01601 69.43599 39000 ft 473 kts
2026-05-05 09:44 31.08126 69.44056 39001 ft 472 kts
2026-05-05 09:44 31.14675 69.44516 39000 ft 471 kts
2026-05-05 09:45 31.21215 69.44976 39000 ft 470 kts
2026-05-05 09:45 31.27743 69.45436 39000 ft 469 kts
2026-05-05 09:46 31.34204 69.46322 39000 ft 468 kts 14°
2026-05-05 09:46 31.40212 69.49245 39000 ft 467 kts 28°
2026-05-05 09:47 31.45833 69.53060 39000 ft 467 kts 31°
2026-05-05 09:47 31.51333 69.57010 39000 ft 466 kts 31°
2026-05-05 09:48 31.56858 69.60976 39000 ft 465 kts 31°
2026-05-05 09:48 31.62395 69.64916 39001 ft 465 kts 31°
2026-05-05 09:49 31.67934 69.68844 39000 ft 464 kts 31°
2026-05-05 09:49 31.73463 69.72768 39000 ft 464 kts 31°
2026-05-05 09:50 31.78988 69.76696 39000 ft 463 kts 31°
2026-05-05 09:50 31.84511 69.80630 38999 ft 463 kts 31°
2026-05-05 09:51 31.89984 69.84533 39000 ft 463 kts 31°
2026-05-05 09:51 31.95504 69.88476 39000 ft 463 kts 31°
2026-05-05 09:52 32.01007 69.92412 39000 ft 462 kts 31°
2026-05-05 09:52 32.06475 69.96329 39000 ft 465 kts 31°
2026-05-05 09:53 32.12023 70.00308 39000 ft 467 kts 31°
2026-05-05 09:53 32.17586 70.04304 39000 ft 469 kts 31°
2026-05-05 09:54 32.23173 70.08324 38999 ft 472 kts 31°
2026-05-05 09:54 32.28801 70.12378 38999 ft 474 kts 31°
2026-05-05 09:55 32.34412 70.16426 39000 ft 475 kts 31°
2026-05-05 09:55 32.40096 70.20478 38999 ft 477 kts 30°
2026-05-05 09:56 32.45837 70.24460 39000 ft 478 kts 30°
2026-05-05 09:56 32.50623 70.27769 39000 ft 480 kts 30°
2026-05-05 09:57 32.56447 70.31652 39000 ft 481 kts 24°
2026-05-05 09:57 32.62896 70.33633 39000 ft 481 kts
2026-05-05 09:58 32.66244 70.33483 39000 ft 481 kts 351°
2026-05-05 09:58 32.69496 70.32514 39000 ft 481 kts 339°
2026-05-05 09:58 32.75396 70.28912 39000 ft 481 kts 329°
2026-05-05 09:59 32.81118 70.24760 39000 ft 482 kts 328°
2026-05-05 09:59 32.83970 70.22648 38865 ft 485 kts 328°
2026-05-05 09:59 32.86858 70.20521 38613 ft 490 kts 328°
2026-05-05 10:00 32.89773 70.18390 38359 ft 495 kts 328°
2026-05-05 10:00 32.92726 70.16247 38104 ft 499 kts 328°
2026-05-05 10:00 32.95709 70.14092 37849 ft 503 kts 328°
2026-05-05 10:00 32.98718 70.11921 37594 ft 508 kts 328°
2026-05-05 10:01 33.01750 70.09735 37340 ft 511 kts 328°
2026-05-05 10:01 33.04816 70.07523 37085 ft 515 kts 328°
2026-05-05 10:01 33.07891 70.05307 36831 ft 518 kts 329°
2026-05-05 10:01 33.11031 70.03174 36576 ft 521 kts 331°
2026-05-05 10:02 33.14238 70.01120 36321 ft 525 kts 332°
2026-05-05 10:02 33.17485 69.99098 35948 ft 530 kts 332°
2026-05-05 10:02 33.20744 69.97083 35315 ft 539 kts 332°
2026-05-05 10:02 33.24108 69.94997 34613 ft 548 kts 332°
2026-05-05 10:03 33.27482 69.92892 34354 ft 547 kts 332°
2026-05-05 10:03 33.30845 69.90781 34226 ft 545 kts 332°
2026-05-05 10:03 33.34194 69.88669 34029 ft 544 kts 332°
2026-05-05 10:03 33.37544 69.86548 33818 ft 545 kts 332°
2026-05-05 10:04 33.40896 69.84423 33604 ft 544 kts 332°
2026-05-05 10:04 33.44230 69.82306 33211 ft 536 kts 332°
2026-05-05 10:04 33.47516 69.80218 32227 ft 534 kts 332°
2026-05-05 10:04 33.50764 69.78152 31056 ft 536 kts 332°
2026-05-05 10:05 33.54061 69.76067 29901 ft 536 kts 332°
2026-05-05 10:05 33.57355 69.74013 29108 ft 529 kts 332°
2026-05-05 10:05 33.60604 69.72001 28256 ft 522 kts 332°
2026-05-05 10:05 33.63813 69.70019 27478 ft 514 kts 332°
2026-05-05 10:06 33.66971 69.68067 26693 ft 507 kts 332°
2026-05-05 10:06 33.70084 69.66139 25909 ft 499 kts 332°
2026-05-05 10:06 33.73153 69.64235 25127 ft 492 kts 332°
2026-05-05 10:06 33.76185 69.62350 24345 ft 485 kts 332°
2026-05-05 10:07 33.79168 69.60494 23554 ft 478 kts 332°
2026-05-05 10:07 33.82105 69.58663 22776 ft 472 kts 332°
2026-05-05 10:07 33.85000 69.56857 21968 ft 466 kts 332°
2026-05-05 10:07 33.87855 69.55075 21199 ft 459 kts 332°
2026-05-05 10:08 33.90640 69.53334 20453 ft 453 kts 332°
2026-05-05 10:08 33.93414 69.51600 19667 ft 447 kts 332°
2026-05-05 10:08 33.96158 69.49884 18900 ft 441 kts 332°
2026-05-05 10:08 33.98863 69.48189 18189 ft 434 kts 332°
2026-05-05 10:09 34.01510 69.46532 17614 ft 423 kts 332°
2026-05-05 10:09 34.04095 69.44912 17058 ft 414 kts 332°
2026-05-05 10:09 34.06620 69.43329 16508 ft 405 kts 332°
2026-05-05 10:09 34.09150 69.41929 15963 ft 397 kts 341°
2026-05-05 10:10 34.11831 69.41267 15407 ft 391 kts 356°
2026-05-05 10:10 34.14515 69.41531 14870 ft 385 kts 10°
2026-05-05 10:10 34.17094 69.42277 14401 ft 377 kts 16°
2026-05-05 10:10 34.19556 69.43235 13994 ft 367 kts 19°
2026-05-05 10:11 34.21938 69.44282 13444 ft 362 kts 20°
2026-05-05 10:11 34.24290 69.45357 12894 ft 359 kts 20°
2026-05-05 10:11 34.26576 69.46399 12417 ft 352 kts 20°
2026-05-05 10:11 34.28853 69.47418 11943 ft 346 kts 20°
2026-05-05 10:12 34.31095 69.48405 11540 ft 339 kts 19°
2026-05-05 10:12 34.33270 69.49346 11400 ft 323 kts 19°
2026-05-05 10:12 34.35341 69.50231 11312 ft 309 kts 19°
2026-05-05 10:12 34.37329 69.51077 11221 ft 296 kts 19°
2026-05-05 10:13 34.39225 69.51884 11146 ft 281 kts 19°
2026-05-05 10:13 34.41014 69.52647 11083 ft 264 kts 19°
2026-05-05 10:13 34.42687 69.53366 10988 ft 246 kts 18°
2026-05-05 10:13 34.44317 69.53758 10850 ft 231 kts
2026-05-05 10:14 34.45856 69.53612 10718 ft 214 kts 346°
2026-05-05 10:14 34.47175 69.52976 10603 ft 196 kts 328°
2026-05-05 10:14 34.48183 69.51977 10477 ft 180 kts 310°
2026-05-05 10:14 34.48868 69.50773 10340 ft 168 kts 297°
2026-05-05 10:15 34.49324 69.49511 10111 ft 163 kts 289°
2026-05-05 10:15 34.49670 69.48223 9877 ft 157 kts 286°
2026-05-05 10:15 34.49977 69.47020 9822 ft 139 kts 286°
2026-05-05 10:15 34.50251 69.45927 9880 ft 141 kts 286°
2026-05-05 10:16 34.50556 69.44710 9893 ft 159 kts 286°
2026-05-05 10:16 34.50887 69.43408 9842 ft 162 kts 286°
2026-05-05 10:16 34.51224 69.42096 9650 ft 163 kts 287°
2026-05-05 10:16 34.51562 69.40791 9382 ft 161 kts 286°
2026-05-05 10:17 34.51893 69.39500 9109 ft 160 kts 286°
2026-05-05 10:17 34.52221 69.38222 8854 ft 158 kts 287°
2026-05-05 10:17 34.52548 69.36950 8608 ft 158 kts 286°
2026-05-05 10:17 34.52870 69.35695 8364 ft 157 kts 286°
2026-05-05 10:18 34.53194 69.34431 8120 ft 156 kts 286°
2026-05-05 10:18 34.53518 69.33173 7881 ft 156 kts 286°
2026-05-05 10:18 34.53838 69.31925 7638 ft 154 kts 286°
2026-05-05 10:18 34.54157 69.30683 7399 ft 154 kts 286°
2026-05-05 10:19 34.54476 69.29437 7157 ft 154 kts 286°
2026-05-05 10:19 34.54790 69.28216 6924 ft 153 kts 286°
2026-05-05 10:19 34.55103 69.26984 6696 ft 152 kts 289°
2026-05-05 10:19 34.55425 69.25765 6479 ft 152 kts 287°
2026-05-05 10:20 34.55719 69.24535 6192 ft 151 kts 285°
2026-05-05 10:20 34.55929 69.23716 6024 ft 150 kts 287°